SCP
0 0 0 0 0 0 0 0 0 0 0 0 0 0 0 0 0 0 0 0 0 0 0 0 0 0 0 0 0 0 0 0 0 0 0 0 0 0 0 0 0 0 0 0 0
0 0 0 0 0 0 0 0 0 0 0 0 0 0 0 0 0 0 0 0 0 0 0 0 0 0 0 0 0 0 0 0 0 0 0 0 0 0 0 0 0 0 0 0 0
0 0 0 0 0 0 0 0 0 0 0 0 0 0 0 0 0 0 0 0 0 0 0 0 0 0 0 0 0 0 0 0 0 0 0 0 0 0 0 0 0 0 0 0 0
0 0 0 0 0 0 0 0 0 0 0 0 0 0 0 0 0 0 0 0 0 0 0 0 0 0 0 0 0 0 0 0 0 0 0 0 0 0 0 0 0 0 0 0 0
0 0 0 0 0 0 0 0 0 0 0 0 0 0 0 0 0 0 0 0 0 0 0 0 0 0 0 0 0 0 0 0 0 0 0 0 0 0 0 0 0 0 0 0 0
0 0 0 0 0 0 0 0 0 0 0 0 0 0 0 0 0 0 0 0 0 0 0 0 0 0 0 0 0 0 0 0 0 0 0 0 0 0 0 0 0 0 0 0 0
0 0 0 0 0 0 0 0 0 0 0 0 0 0 0 0 0 0 0 0 0 0 0 0 0 0 0 0 0 0 0 0 0 0 0 0 0 0 0 0 0 0 0 0 0
0 0 0 0 0 0 0 0 0 0 0 0 0 0 0 0 0 0 0 0 0 0 0 0 0 0 0 0 0 0 0 0 0 0 0 0 0 0 0 0 0 0 0 0 0
0 0 0 0 0 0 0 0 0 0 0 0 0 0 0 0 0 0 0 0 0 0 0 0 0 0 0 0 0 0 0 0 0 0 0 0 0 0 0 0 0 0 0 0 0
0 0 0 0 0 0 0 0 0 0 0 0 0 0 0 0 0 0 0 0 0 0 0 0 0 0 0 0 0 0 0 0 0 0 0 0 0 0 0 0 0 0 0 0 0
0 0 0 0 0 0 0 0 0 0 0 0 0 0 0 0 0 0 0 0 0 0 0 0 0 0 0 0 0 0 0 0 0 0 0 0 0 0 0 0 0 0 0 0 0
0 0 0 0 0 0 0 0 0 0 0 0 0 0 0 0 0 0 0 0 0 0 0 0 0 0 0 0 0 0 0 0 0 0 0 0 0 0 0 0 0 0 0 0 0
0 0 0 0 0 0 0 0 0 0 0 0 0 0 0 0 0 0 0 0 0 0 0 0 0 0 0 0 0 0 0 0 0 0 0 0 0 0 0 0 0 0 0 0 0
0 0 0 0 0 0 0 0 0 0 0 0 0 0 0 0 0 0 0 0 0 0 0 0 0 0 0 0 0 0 0 0 0 0 0 0 -0 -0 0 0 0 0 0 0 0
0 0 0 0 0 0 0 0 0 0 0 0 0 0 0 0 0 0 0 0 0 0 0 0 0 0 0 0 0 0 0 0 0 0 0 0 0 -0 -0 0 0 0 0 0 0
0 0 0 0 0 0 0 0 0 0 0 0 0 0 0 0 0 0 0 0 0 0 0 0 0 0 0 0 0 0 0 0 0 0 0 0 0 -0 -0 -0 0 0 0 0 0
0 0 0 0 0 0 0 0 0 0 0 0 0 0 0 0 0 0 0 0 0 0 0 0 0 0 0 0 0 0 0 0 0 0 0 0 0 0 0 0 -0 0 0 0 0
0 0 0 0 0 0 0 0 0 0 0 0 0 0 0 0 0 0 0 0 0 0 0 0 0 0 0 0 0 0 0 0 0 0 0 0 0 0 -0 0 0 0 0 0 0
0 0 0 0 0 0 0 0 0 0 0 0 0 0 0 0 0 0 0 0 0 0 0 0 0 0 0 0 0 0 0 0 0 0 0 0 0 0 0 0 -0 0 0 0 0
0 0 0 0 0 0 0 0 0 0 0 0 0 0 0 0 0 0 0 0 0 0 0 0 0 0 0 0 0 0 0 0 0 0 0 0 0 0 0 0 0 0 0 0 0
0 0 0 0 0 0 0 0 0 0 0 0 0 0 0 0 0 0 0 0 0 0 0 0 0 0 0 0 0 0 0 0 0 0 0 0 0 0 -0 -0 0 0 0 0 0
0 0 0 0 0 0 0 0 0 0 0 0 0 0 0 0 0 0 0 0 0 0 0 0 0 0 0 0 0 0 0 0 0 0 0 0 0 0 0 0 0 0 0 0 -0
0 0 0 0 0 0 0 0 0 0 0 0 0 0 0 0 0 0 0 0 0 0 0 0 0 0 0 0 0 0 0 0 0 0 0 0 0 0 0 0 0 0 -0 -0 -0
0 0 0 0 0 0 0 0 0 0 0 0 0 0 0 0 0 0 0 0 0 0 0 0 0 0 0 0 0 0 0 0 0 0 0 0 0 0 0 0 0 0 0 -0 -0
0 0 0 0 0 0 0 0 0 0 0 0 0 0 0 0 0 0 0 0 0 0 0 0 0 0 0 0 0 0 0 0 0 0 0 0 0 0 0 0 0 0 0 0 -0
0 0 -0 0 0 0 0 0 0 0 0 0 0 0 0 0 0 0 0 0 0 0 0 0 0 0 0 0 0 0 0 0 0 0 0 0 0 0 0 0 0 0 0 0 0
0 0 -0 0 0 0 0 0 0 0 0 0 0 0 0 0 0 0 0 0 0 0 0 0 0 0 0 0 0 0 0 0 0 0 0 0 0 0 0 0 0 0 0 0 0
Wind_Speed_500mb
34 32 25 29 24 27 33 40 42 42 41 40 40 39 36 37 36 35 36 23 21 21 17 23 31 33 35 22 15 10 6 8 11 14 10 7 3 3 1 5 10 14 8 5 18
37 39 41 34 31 26 28 30 35 41 44 44 42 43 42 42 46 53 39 27 27 25 24 22 37 33 21 18 15 11 8 19 12 9 4 1 8 10 1 6 7 11 14 13 23
45 43 38 38 35 44 32 32 33 33 33 34 36 37 36 34 42 25 19 38 46 33 28 24 30 32 16 16 20 16 12 9 8 9 3 6 12 7 3 6 12 8 12 18 30
50 48 43 45 44 42 44 35 37 34 30 27 28 26 21 16 12 5 6 13 29 34 29 27 31 19 11 12 18 6 21 13 8 9 5 6 9 12 10 6 12 5 3 16 31
55 51 39 44 46 42 39 44 37 37 31 24 23 24 18 16 34 4 12 11 15 18 29 36 37 24 12 11 6 7 7 16 42 32 19 15 19 14 31 31 28 22 20 20 29
58 57 54 46 42 44 45 44 42 40 34 30 29 27 23 15 24 36 25 21 15 12 18 38 24 31 10 9 14 4 18 24 11 20 16 8 13 9 30 41 41 37 25 23 31
65 67 60 56 49 45 42 33 44 40 41 34 32 33 38 54 18 24 38 34 30 20 13 27 21 23 12 3 8 5 6 8 10 13 11 2 14 22 74 51 38 36 38 38 38
69 64 62 59 55 50 43 25 49 41 40 38 31 33 30 27 22 38 39 40 38 28 18 17 19 20 9 3 5 5 7 4 5 23 13 23 27 17 52 49 66 70 70 71 68
65 65 64 60 59 53 48 40 34 39 37 40 28 30 27 21 33 43 48 36 35 32 25 19 12 10 9 10 6 8 6 10 11 25 10 17 7 18 40 33 43 53 55 53 62
65 61 67 64 58 56 50 49 39 34 37 36 41 15 37 17 26 28 49 43 27 26 20 19 14 6 3 9 19 14 10 9 11 5 12 14 22 18 44 15 37 55 62 62 62
61 56 54 63 60 56 54 46 31 19 42 31 14 37 8 19 5 16 35 46 29 27 14 17 7 28 28 19 3 13 11 15 6 2 4 14 18 17 49 32 31 52 54 57 51
55 63 60 64 61 62 66 75 54 11 15 73 65 37 66 12 7 21 35 38 33 33 19 9 41 16 13 15 11 7 7 8 8 14 1 14 28 17 20 30 44 51 62 72 79
50 64 57 55 59 61 80 92 65 30 6 20 94 80 31 50 16 17 44 43 20 35 35 14 4 21 19 11 21 14 25 9 7 9 11 12 42 30 20 42 49 66 67 67 69
59 57 54 49 61 61 79 88 59 47 7 12 25 43 66 29 19 51 48 36 12 37 19 19 31 4 11 24 16 17 13 11 10 9 9 7 18 9 5 23 29 46 67 83 84
59 57 54 55 28 40 71 81 79 44 12 14 21 20 54 42 25 52 50 33 16 18 22 15 12 26 19 18 18 10 15 22 15 12 1 12 9 12 4 10 16 21 61 75 78
53 56 60 53 56 67 28 84 71 13 21 16 22 23 29 47 9 24 37 32 18 10 9 5 7 14 18 13 23 8 7 7 6 9 13 27 19 9 10 13 12 11 37 49 63
56 52 59 63 66 57 62 67 22 22 24 20 20 28 41 34 22 9 31 25 16 19 25 13 22 4 8 9 11 9 16 5 10 10 20 15 15 44 10 5 11 14 41 64 49
60 61 62 68 67 60 51 21 31 23 30 7 20 37 31 24 38 15 33 28 26 4 8 21 7 20 11 12 12 36 26 10 17 13 11 17 17 20 15 42 57 46 47 43 45
58 59 63 66 65 67 47 41 30 38 22 25 27 39 14 24 14 28 19 36 27 21 14 12 14 6 15 22 16 10 21 33 6 3 1 9 15 15 9 13 22 35 49 66 71
55 60 72 65 66 66 23 43 17 27 28 44 18 15 17 38 18 39 29 23 16 38 7 7 6 13 5 9 14 14 12 8 11 7 11 8 12 15 7 2 13 17 38 50 44
57 34 76 64 62 45 22 19 9 37 50 28 17 14 14 33 23 34 30 7 33 27 30 10 6 3 9 12 23 15 22 10 10 15 9 6 12 16 22 17 13 23 53 39 33
62 15 42 44 27 9 23 12 23 39 27 10 11 16 25 35 13 17 22 16 37 25 37 27 5 7 15 7 4 13 26 34 19 17 16 28 23 13 13 10 19 26 43 61 73
29 25 32 52 28 18 17 37 17 47 41 14 11 11 12 26 13 10 13 19 38 20 27 18 10 11 10 10 11 7 16 12 20 19 32 26 18 8 11 20 42 39 57 54 60
21 7 27 52 48 28 22 21 21 37 10 9 14 31 19 19 9 15 16 6 23 21 28 30 7 10 11 7 8 6 24 32 23 22 28 34 38 45 34 27 26 50 65 65 76
28 12 12 11 32 35 23 25 38 22 2 11 11 24 26 12 8 10 7 6 7 12 13 12 12 9 12 15 7 21 21 18 31 36 24 33 28 34 31 26 45 52 64 62 74
21 9 11 7 32 26 25 32 41 20 14 10 23 28 19 21 15 16 17 9 11 3 8 8 7 8 8 15 16 29 34 24 16 18 13 29 29 37 46 38 40 55 50 61 68
36 21 17 15 27 28 8 29 50 40 14 5 42 28 15 15 25 36 20 23 19 17 13 12 11 8 11 3 3 7 18 29 22 17 18 19 20 22 17 23 30 47 51 50 48
Wind_Direction_500mb
259 249 260 252 264 271 258 248 252 256 259 262 267 275 279 281 278 277 264 250 236 213 204 203 194 187 187 188 195 171 103 212 224 164 237 351 21 84 138 184 188 201 227 200 200
268 259 254 260 251 258 260 269 266 261 261 263 267 272 278 283 285 272 255 244 232 225 211 206 192 187 181 189 192 169 169 213 211 201 207 40 23 329 32 171 217 205 220 208 198
266 267 270 249 257 255 255 256 269 272 270 269 271 273 276 282 295 274 254 231 227 224 222 215 200 195 196 186 190 180 205 209 245 172 80 308 321 333 0 238 219 216 232 194 196
270 266 268 261 250 254 251 254 255 269 271 272 278 278 278 265 243 283 234 192 210 218 216 211 193 186 198 195 201 182 233 190 210 206 352 317 302 308 248 233 151 43 249 226 211
264 259 268 262 258 264 263 235 250 256 268 272 280 282 266 229 241 221 161 175 177 213 222 205 190 189 179 207 164 224 245 219 235 255 275 271 265 266 272 257 249 272 279 244 244
264 263 257 252 258 259 273 241 239 243 252 260 271 273 253 229 254 225 199 197 207 213 216 200 206 199 205 205 176 253 253 259 266 241 255 249 269 204 266 258 259 258 257 253 250
256 258 257 253 249 255 261 265 233 240 244 249 249 258 256 246 243 230 216 215 206 210 208 207 202 185 185 271 232 238 299 307 230 220 234 5 273 217 252 249 250 248 250 255 257
256 252 254 252 247 246 251 249 236 243 247 250 252 243 249 264 258 220 211 218 220 214 222 224 222 232 202 213 10 200 151 241 267 177 226 167 257 238 251 247 253 257 260 259 255
258 254 249 248 246 242 242 235 231 247 231 246 249 235 264 255 255 229 215 223 228 228 224 228 203 204 167 111 23 352 206 207 300 197 191 194 252 264 265 241 250 260 261 261 257
262 255 249 245 243 239 235 229 228 242 234 226 241 255 237 249 252 243 211 204 195 198 188 192 192 171 145 147 205 189 201 232 199 235 213 229 249 286 273 257 255 266 267 264 260
259 256 251 246 240 235 226 212 202 218 216 203 214 216 297 291 271 224 200 188 190 190 182 179 169 216 193 205 119 158 178 204 240 249 296 239 259 256 276 272 257 263 268 270 265
259 255 256 245 243 232 223 205 203 198 198 223 228 234 237 300 332 221 189 177 193 204 180 160 225 180 167 178 198 205 178 213 299 297 330 298 280 255 264 270 265 263 263 261 265
257 253 252 252 246 225 218 215 208 193 214 216 222 231 223 232 238 223 191 192 191 200 203 195 227 184 178 172 196 208 224 184 204 347 310 328 285 259 242 250 252 260 261 264 266
255 253 247 246 236 239 224 212 205 182 230 219 199 234 217 227 243 229 200 180 198 209 179 241 240 56 191 206 163 214 205 152 183 154 236 162 282 248 218 249 245 247 253 258 259
249 248 246 236 241 233 225 206 200 177 220 180 167 195 191 184 148 204 205 190 181 186 182 213 163 193 220 211 170 222 170 186 173 190 333 236 277 278 213 268 267 245 253 259 261
249 243 238 233 235 245 226 197 170 191 216 158 144 168 160 197 174 146 172 198 172 156 254 227 193 171 195 186 187 183 110 107 127 161 242 226 200 232 199 203 245 249 261 275 276
244 244 239 233 235 242 231 186 192 208 149 153 164 171 176 185 189 142 181 179 176 182 202 193 239 257 170 148 174 174 134 166 213 207 236 176 183 252 293 233 206 273 283 295 285
245 245 241 235 232 231 221 215 216 147 168 157 144 161 177 162 201 155 181 199 209 152 158 198 243 183 196 198 168 198 187 167 192 192 236 145 210 246 209 237 253 273 282 286 285
238 238 239 238 228 227 224 214 210 149 164 140 123 156 155 178 168 199 201 206 205 189 171 178 237 183 209 199 152 190 201 222 8 68 7 205 271 302 226 231 246 257 276 286 290
230 236 240 236 229 217 227 234 182 174 141 141 137 159 161 174 161 186 176 194 199 203 138 205 237 203 220 122 226 183 163 189 196 236 238 243 254 232 335 304 286 280 275 288 302
234 221 241 235 231 223 219 237 189 185 154 158 138 133 173 166 176 182 185 188 194 190 188 167 182 285 125 182 189 204 229 226 188 212 204 246 245 198 214 227 277 283 286 299 310
230 205 221 214 208 200 217 210 177 173 167 114 99 91 159 160 140 162 190 215 186 141 192 188 178 212 230 231 133 209 215 226 226 211 235 247 249 307 279 201 288 282 290 302 310
224 203 213 213 214 205 205 210 240 173 173 154 128 129 145 156 134 148 182 220 168 155 166 169 209 218 333 353 355 182 231 216 226 241 240 246 259 227 292 314 316 314 306 305 309
169 183 212 215 228 205 209 168 174 183 135 112 116 116 106 146 18 171 159 166 179 168 186 157 137 162 194 169 143 257 244 227 211 233 237 239 263 272 276 280 287 285 286 297 290
185 206 212 198 191 194 191 156 148 152 333 110 62 151 139 122 83 132 121 81 30 209 149 129 188 169 233 245 235 242 273 258 220 231 233 249 249 261 267 259 265 268 277 291 299
143 197 228 270 199 161 185 170 153 140 146 170 143 144 125 155 166 153 124 140 167 103 135 176 234 133 254 225 226 249 255 231 248 234 229 243 256 252 274 304 285 277 274 279 283
182 218 256 240 169 183 157 158 166 146 33 96 140 138 115 146 133 149 139 154 155 150 170 149 137 143 256 330 105 273 223 222 231 209 232 236 250 13 331 326 307 292 274 264 282
Wind_Speed_850mb
34 32 25 29 24 27 33 40 42 42 41 40 40 39 36 37 36 35 36 23 21 21 17 23 31 33 35 22 15 10 6 8 11 14 10 7 3 3 1 5 10 14 8 5 18
37 39 41 34 31 26 28 30 35 41 44 44 42 43 42 42 46 53 39 27 27 25 24 22 37 33 21 18 15 11 8 19 12 9 4 1 8 10 1 6 7 11 14 13 23
45 43 38 38 35 44 32 32 33 33 33 34 36 37 36 34 42 25 19 38 46 33 28 24 30 32 16 16 20 16 12 9 8 9 3 6 12 7 3 6 12 8 12 18 30
50 48 43 45 44 42 44 35 37 34 30 27 28 26 21 16 12 5 6 13 29 34 29 27 31 19 11 12 18 6 21 13 8 9 5 6 9 12 10 6 12 5 3 16 31
55 51 39 44 46 42 39 44 37 37 31 24 23 24 18 16 34 4 12 11 15 18 29 36 37 24 12 11 6 7 7 16 42 32 19 15 19 14 31 31 28 22 20 20 29
58 57 54 46 42 44 45 44 42 40 34 30 29 27 23 15 24 36 25 21 15 12 18 38 24 31 10 9 14 4 18 24 11 20 16 8 13 9 30 41 41 37 25 23 31
65 67 60 56 49 45 42 33 44 40 41 34 32 33 38 54 18 24 38 34 30 20 13 27 21 23 12 3 8 5 6 8 10 13 11 2 14 22 74 51 38 36 38 38 38
69 64 62 59 55 50 43 25 49 41 40 38 31 33 30 27 22 38 39 40 38 28 18 17 19 20 9 3 5 5 7 4 5 23 13 23 27 17 52 49 66 70 70 71 68
65 65 64 60 59 53 48 40 34 39 37 40 28 30 27 21 33 43 48 36 35 32 25 19 12 10 9 10 6 8 6 10 11 25 10 17 7 18 40 33 43 53 55 53 62
65 61 67 64 58 56 50 49 39 34 37 36 41 15 37 17 26 28 49 43 27 26 20 19 14 6 3 9 19 14 10 9 11 5 12 14 22 18 44 15 37 55 62 62 62
61 56 54 63 60 56 54 46 31 19 42 31 14 37 8 19 5 16 35 46 29 27 14 17 7 28 28 19 3 13 11 15 6 2 4 14 18 17 49 32 31 52 54 57 51
55 63 60 64 61 62 66 75 54 11 15 73 65 37 66 12 7 21 35 38 33 33 19 9 41 16 13 15 11 7 7 8 8 14 1 14 28 17 20 30 44 51 62 72 79
50 64 57 55 59 61 80 92 65 30 6 20 94 80 31 50 16 17 44 43 20 35 35 14 4 21 19 11 21 14 25 9 7 9 11 12 42 30 20 42 49 66 67 67 69
59 57 54 49 61 61 79 88 59 47 7 12 25 43 66 29 19 51 48 36 12 37 19 19 31 4 11 24 16 17 13 11 10 9 9 7 18 9 5 23 29 46 67 83 84
59 57 54 55 28 40 71 81 79 44 12 14 21 20 54 42 25 52 50 33 16 18 22 15 12 26 19 18 18 10 15 22 15 12 1 12 9 12 4 10 16 21 61 75 78
53 56 60 53 56 67 28 84 71 13 21 16 22 23 29 47 9 24 37 32 18 10 9 5 7 14 18 13 23 8 7 7 6 9 13 27 19 9 10 13 12 11 37 49 63
56 52 59 63 66 57 62 67 22 22 24 20 20 28 41 34 22 9 31 25 16 19 25 13 22 4 8 9 11 9 16 5 10 10 20 15 15 44 10 5 11 14 41 64 49
60 61 62 68 67 60 51 21 31 23 30 7 20 37 31 24 38 15 33 28 26 4 8 21 7 20 11 12 12 36 26 10 17 13 11 17 17 20 15 42 57 46 47 43 45
58 59 63 66 65 67 47 41 30 38 22 25 27 39 14 24 14 28 19 36 27 21 14 12 14 6 15 22 16 10 21 33 6 3 1 9 15 15 9 13 22 35 49 66 71
55 60 72 65 66 66 23 43 17 27 28 44 18 15 17 38 18 39 29 23 16 38 7 7 6 13 5 9 14 14 12 8 11 7 11 8 12 15 7 2 13 17 38 50 44
57 34 76 64 62 45 22 19 9 37 50 28 17 14 14 33 23 34 30 7 33 27 30 10 6 3 9 12 23 15 22 10 10 15 9 6 12 16 22 17 13 23 53 39 33
62 15 42 44 27 9 23 12 23 39 27 10 11 16 25 35 13 17 22 16 37 25 37 27 5 7 15 7 4 13 26 34 19 17 16 28 23 13 13 10 19 26 43 61 73
29 25 32 52 28 18 17 37 17 47 41 14 11 11 12 26 13 10 13 19 38 20 27 18 10 11 10 10 11 7 16 12 20 19 32 26 18 8 11 20 42 39 57 54 60
21 7 27 52 48 28 22 21 21 37 10 9 14 31 19 19 9 15 16 6 23 21 28 30 7 10 11 7 8 6 24 32 23 22 28 34 38 45 34 27 26 50 65 65 76
28 12 12 11 32 35 23 25 38 22 2 11 11 24 26 12 8 10 7 6 7 12 13 12 12 9 12 15 7 21 21 18 31 36 24 33 28 34 31 26 45 52 64 62 74
21 9 11 7 32 26 25 32 41 20 14 10 23 28 19 21 15 16 17 9 11 3 8 8 7 8 8 15 16 29 34 24 16 18 13 29 29 37 46 38 40 55 50 61 68
36 21 17 15 27 28 8 29 50 40 14 5 42 28 15 15 25 36 20 23 19 17 13 12 11 8 11 3 3 7 18 29 22 17 18 19 20 22 17 23 30 47 51 50 48
Wind_Direction_850mb
259 249 260 252 264 271 258 248 252 256 259 262 267 275 279 281 278 277 264 250 236 213 204 203 194 187 187 188 195 171 103 212 224 164 237 351 21 84 138 184 188 201 227 200 200
268 259 254 260 251 258 260 269 266 261 261 263 267 272 278 283 285 272 255 244 232 225 211 206 192 187 181 189 192 169 169 213 211 201 207 40 23 329 32 171 217 205 220 208 198
266 267 270 249 257 255 255 256 269 272 270 269 271 273 276 282 295 274 254 231 227 224 222 215 200 195 196 186 190 180 205 209 245 172 80 308 321 333 0 238 219 216 232 194 196
270 266 268 261 250 254 251 254 255 269 271 272 278 278 278 265 243 283 234 192 210 218 216 211 193 186 198 195 201 182 233 190 210 206 352 317 302 308 248 233 151 43 249 226 211
264 259 268 262 258 264 263 235 250 256 268 272 280 282 266 229 241 221 161 175 177 213 222 205 190 189 179 207 164 224 245 219 235 255 275 271 265 266 272 257 249 272 279 244 244
264 263 257 252 258 259 273 241 239 243 252 260 271 273 253 229 254 225 199 197 207 213 216 200 206 199 205 205 176 253 253 259 266 241 255 249 269 204 266 258 259 258 257 253 250
256 258 257 253 249 255 261 265 233 240 244 249 249 258 256 246 243 230 216 215 206 210 208 207 202 185 185 271 232 238 299 307 230 220 234 5 273 217 252 249 250 248 250 255 257
256 252 254 252 247 246 251 249 236 243 247 250 252 243 249 264 258 220 211 218 220 214 222 224 222 232 202 213 10 200 151 241 267 177 226 167 257 238 251 247 253 257 260 259 255
258 254 249 248 246 242 242 235 231 247 231 246 249 235 264 255 255 229 215 223 228 228 224 228 203 204 167 111 23 352 206 207 300 197 191 194 252 264 265 241 250 260 261 261 257
262 255 249 245 243 239 235 229 228 242 234 226 241 255 237 249 252 243 211 204 195 198 188 192 192 171 145 147 205 189 201 232 199 235 213 229 249 286 273 257 255 266 267 264 260
259 256 251 246 240 235 226 212 202 218 216 203 214 216 297 291 271 224 200 188 190 190 182 179 169 216 193 205 119 158 178 204 240 249 296 239 259 256 276 272 257 263 268 270 265
259 255 256 245 243 232 223 205 203 198 198 223 228 234 237 300 332 221 189 177 193 204 180 160 225 180 167 178 198 205 178 213 299 297 330 298 280 255 264 270 265 263 263 261 265
257 253 252 252 246 225 218 215 208 193 214 216 222 231 223 232 238 223 191 192 191 200 203 195 227 184 178 172 196 208 224 184 204 347 310 328 285 259 242 250 252 260 261 264 266
255 253 247 246 236 239 224 212 205 182 230 219 199 234 217 227 243 229 200 180 198 209 179 241 240 56 191 206 163 214 205 152 183 154 236 162 282 248 218 249 245 247 253 258 259
249 248 246 236 241 233 225 206 200 177 220 180 167 195 191 184 148 204 205 190 181 186 182 213 163 193 220 211 170 222 170 186 173 190 333 236 277 278 213 268 267 245 253 259 261
249 243 238 233 235 245 226 197 170 191 216 158 144 168 160 197 174 146 172 198 172 156 254 227 193 171 195 186 187 183 110 107 127 161 242 226 200 232 199 203 245 249 261 275 276
244 244 239 233 235 242 231 186 192 208 149 153 164 171 176 185 189 142 181 179 176 182 202 193 239 257 170 148 174 174 134 166 213 207 236 176 183 252 293 233 206 273 283 295 285
245 245 241 235 232 231 221 215 216 147 168 157 144 161 177 162 201 155 181 199 209 152 158 198 243 183 196 198 168 198 187 167 192 192 236 145 210 246 209 237 253 273 282 286 285
238 238 239 238 228 227 224 214 210 149 164 140 123 156 155 178 168 199 201 206 205 189 171 178 237 183 209 199 152 190 201 222 8 68 7 205 271 302 226 231 246 257 276 286 290
230 236 240 236 229 217 227 234 182 174 141 141 137 159 161 174 161 186 176 194 199 203 138 205 237 203 220 122 226 183 163 189 196 236 238 243 254 232 335 304 286 280 275 288 302
234 221 241 235 231 223 219 237 189 185 154 158 138 133 173 166 176 182 185 188 194 190 188 167 182 285 125 182 189 204 229 226 188 212 204 246 245 198 214 227 277 283 286 299 310
230 205 221 214 208 200 217 210 177 173 167 114 99 91 159 160 140 162 190 215 186 141 192 188 178 212 230 231 133 209 215 226 226 211 235 247 249 307 279 201 288 282 290 302 310
224 203 213 213 214 205 205 210 240 173 173 154 128 129 145 156 134 148 182 220 168 155 166 169 209 218 333 353 355 182 231 216 226 241 240 246 259 227 292 314 316 314 306 305 309
169 183 212 215 228 205 209 168 174 183 135 112 116 116 106 146 18 171 159 166 179 168 186 157 137 162 194 169 143 257 244 227 211 233 237 239 263 272 276 280 287 285 286 297 290
185 206 212 198 191 194 191 156 148 152 333 110 62 151 139 122 83 132 121 81 30 209 149 129 188 169 233 245 235 242 273 258 220 231 233 249 249 261 267 259 265 268 277 291 299
143 197 228 270 199 161 185 170 153 140 146 170 143 144 125 155 166 153 124 140 167 103 135 176 234 133 254 225 226 249 255 231 248 234 229 243 256 252 274 304 285 277 274 279 283
182 218 256 240 169 183 157 158 166 146 33 96 140 138 115 146 133 149 139 154 155 150 170 149 137 143 256 330 105 273 223 222 231 209 232 236 250 13 331 326 307 292 274 264 282